sat.trackr.live / text

‹ back to catalog

STARLINK-5084

NORAD 54851 · 2022-177AH

PAYLOAD ACTIVE UNKNOWN

§ Identity

Operator
Country
US
Launch date
2022-12-28
Launch site
AFETR
Launch vehicle
Mass (kg)
RCS (m²)

Purposes: comms

External: N2YO · Heavens-Above · Gunter

§ Orbital elements

Epoch: 2026-05-25T02:59:35.751840Z

Period
94.27 min
Inclination
43.0062°
Eccentricity
0.0001246
Mean motion
15.27575522 rev/d
Perigee alt
482.2 km
Apogee alt
483.9 km
Semi-major
6,861.2 km
B*
2.3070e-5
RAAN
49.6395°
Arg perigee
289.5425°
Mean anomaly
70.5292°
Rev number
18,878

§ Raw data

STARLINK-50841 54851U 22177AH  26145.12471935  .00000373  00000+0  23070-4 0  99902 54851  43.0062  49.6395 0001246 289.5425  70.5292 15.27575522188782

JSON: /api/v1/satellites/54851 · /tle

For live sub-satellite position, see the globe view (requires WebGL).

§ Visibility from observer

Set your observer location to see the next 7 days of passes ≥ 10°. The values pass through the URL so the page stays shareable.

No JS? Fill the form by hand. The geolocation button needs JavaScript.